UAE8LT OMDB-DTTA

Flight info

Callsign UAE8LT
Flight time N/A
Altitude 38000
Route ANVIX R401 GIDIS G783 RIGIL M628 PEKEM/N0485F280 Q332 MEDPO Y511 ITRUX/N0493F380 Y511 PMA Z712 WEJ L677 RAGPU/N0486F400 L677 CVO L617 NABSI M872 METRU UP868 ARLOS DCT DIRKA DCT TOVMA DCT DINUX DCT SONAK R781 DIDON
Aircraft A359/H-SDE2E3GHIJ1J3J4J5LM1ORWXY/LB1D1

Departure

Time 2026-05-06 11:04
Airport Dubai International Airport (OMDB)

Arrival

Time N/A
Airport Tunis Carthage International Airport (DTTA)
Time Latitude Longitude Altitude Speed Heading
2026-05-06 10:11 25.25405 55.35019 27 ft 0 kts 31°
2026-05-06 10:51 25.25400 55.35015 27 ft 4 kts 31°
2026-05-06 10:51 25.25377 55.35000 26 ft 4 kts 31°
2026-05-06 10:51 25.25358 55.34988 27 ft 4 kts 17°
2026-05-06 10:52 25.25335 55.34989 27 ft 4 kts 321°
2026-05-06 10:52 25.25319 55.35009 27 ft 3 kts 301°
2026-05-06 10:52 25.25305 55.35035 27 ft 3 kts 301°
2026-05-06 10:52 25.25303 55.35039 27 ft 0 kts 301°
2026-05-06 10:55 25.25303 55.35038 27 ft 1 kts 303°
2026-05-06 10:55 25.25320 55.35006 27 ft 9 kts 300°
2026-05-06 10:55 25.25373 55.34926 27 ft 17 kts 317°
2026-05-06 10:56 25.25480 55.34908 27 ft 16 kts 26°
2026-05-06 10:56 25.25577 55.34972 27 ft 17 kts 32°
2026-05-06 10:56 25.25677 55.35038 27 ft 17 kts 30°
2026-05-06 10:56 25.25743 55.35129 27 ft 16 kts 95°
2026-05-06 10:57 25.25786 55.35224 27 ft 15 kts 32°
2026-05-06 10:57 25.25876 55.35285 27 ft 16 kts 32°
2026-05-06 10:57 25.25970 55.35349 27 ft 16 kts 31°
2026-05-06 10:57 25.26014 55.35453 28 ft 16 kts 91°
2026-05-06 10:58 25.25981 55.35569 27 ft 16 kts 120°
2026-05-06 10:58 25.25920 55.35679 28 ft 17 kts 122°
2026-05-06 10:58 25.25856 55.35793 28 ft 18 kts 122°
2026-05-06 10:58 25.25790 55.35912 28 ft 18 kts 121°
2026-05-06 10:59 25.25721 55.36032 28 ft 19 kts 122°
2026-05-06 10:59 25.25651 55.36157 29 ft 19 kts 122°
2026-05-06 10:59 25.25578 55.36286 29 ft 20 kts 122°
2026-05-06 10:59 25.25504 55.36419 28 ft 21 kts 121°
2026-05-06 11:00 25.25426 55.36558 28 ft 22 kts 122°
2026-05-06 11:00 25.25344 55.36704 28 ft 22 kts 122°
2026-05-06 11:00 25.25261 55.36851 28 ft 23 kts 122°
2026-05-06 11:00 25.25177 55.37000 28 ft 23 kts 122°
2026-05-06 11:01 25.25093 55.37150 29 ft 23 kts 122°
2026-05-06 11:01 25.25008 55.37302 30 ft 24 kts 122°
2026-05-06 11:01 25.24920 55.37456 30 ft 24 kts 122°
2026-05-06 11:01 25.24831 55.37615 29 ft 25 kts 122°
2026-05-06 11:02 25.24748 55.37763 29 ft 13 kts 122°
2026-05-06 11:02 25.24698 55.37851 28 ft 14 kts 122°
2026-05-06 11:02 25.24682 55.37949 29 ft 13 kts 62°
2026-05-06 11:02 25.24749 55.38010 31 ft 12 kts 30°
2026-05-06 11:03 25.24803 55.38019 30 ft 7 kts 326°
2026-05-06 11:03 25.24814 55.38003 31 ft 0 kts 305°
2026-05-06 11:03 25.24920 55.37821 32 ft 60 kts 301°
2026-05-06 11:03 25.25243 55.37237 34 ft 116 kts 301°
2026-05-06 11:04 25.25756 55.36313 32 ft 164 kts 301°
2026-05-06 11:04 25.26378 55.35187 574 ft 163 kts 302°
2026-05-06 11:04 25.26970 55.34144 1298 ft 158 kts 303°
2026-05-06 11:04 25.27571 55.33112 1705 ft 166 kts 302°
2026-05-06 11:05 25.28197 55.31978 1934 ft 182 kts 301°
2026-05-06 11:05 25.28866 55.30708 2134 ft 200 kts 297°
2026-05-06 11:05 25.29223 55.29160 2337 ft 219 kts 267°
2026-05-06 11:05 25.28808 55.27510 2679 ft 229 kts 245°
2026-05-06 11:06 25.28113 55.25901 3194 ft 234 kts 243°
2026-05-06 11:06 25.27395 55.24269 3776 ft 238 kts 243°
2026-05-06 11:06 25.26670 55.22613 4285 ft 242 kts 243°
2026-05-06 11:06 25.25941 55.20925 4837 ft 245 kts 244°
2026-05-06 11:07 25.25207 55.19217 5377 ft 247 kts 243°
2026-05-06 11:07 25.24254 55.17674 5892 ft 249 kts 222°
2026-05-06 11:07 25.22719 55.16777 6344 ft 252 kts 190°
2026-05-06 11:07 25.20951 55.16721 6763 ft 258 kts 174°
2026-05-06 11:08 25.19208 55.17226 7195 ft 263 kts 152°
2026-05-06 11:08 25.17801 55.18527 7511 ft 272 kts 126°
2026-05-06 11:08 25.16820 55.20358 7814 ft 283 kts 117°
2026-05-06 11:08 25.15916 55.22316 8265 ft 288 kts 116°
2026-05-06 11:09 25.14999 55.24297 8717 ft 292 kts 117°
2026-05-06 11:09 25.14063 55.26291 9186 ft 295 kts 117°
2026-05-06 11:09 25.13111 55.28306 9684 ft 297 kts 117°
2026-05-06 11:09 25.12146 55.30326 10226 ft 298 kts 117°
2026-05-06 11:10 25.11173 55.32345 10800 ft 298 kts 118°
2026-05-06 11:10 25.10211 55.34378 11392 ft 299 kts 115°
2026-05-06 11:10 25.09349 55.36465 12070 ft 299 kts 114°
2026-05-06 11:10 25.08512 55.38560 12741 ft 299 kts 114°
2026-05-06 11:11 25.07660 55.40670 13330 ft 303 kts 114°
2026-05-06 11:11 25.06797 55.42810 13861 ft 309 kts 113°
2026-05-06 11:11 25.05944 55.45034 14154 ft 322 kts 112°
2026-05-06 11:11 25.05060 55.47366 14400 ft 336 kts 112°
2026-05-06 11:12 25.04137 55.49786 14655 ft 349 kts 112°
2026-05-06 11:12 25.03176 55.52293 14889 ft 361 kts 112°
2026-05-06 11:12 25.02160 55.54868 15129 ft 371 kts 115°
2026-05-06 11:12 25.00914 55.57401 15371 ft 381 kts 120°
2026-05-06 11:13 24.99548 55.59943 15703 ft 388 kts 121°
2026-05-06 11:13 24.98157 55.62501 16140 ft 390 kts 120°
2026-05-06 11:13 24.96779 55.65041 16566 ft 393 kts 120°
2026-05-06 11:13 24.95369 55.67643 17004 ft 396 kts 120°
2026-05-06 11:14 24.93904 55.70224 17437 ft 399 kts 124°
2026-05-06 11:14 24.92291 55.72724 17851 ft 402 kts 125°
2026-05-06 11:14 24.90637 55.75216 18263 ft 405 kts 126°
2026-05-06 11:14 24.88967 55.77728 18668 ft 408 kts 126°
2026-05-06 11:15 24.87288 55.80253 19064 ft 411 kts 126°
2026-05-06 11:15 24.85592 55.82805 19440 ft 414 kts 126°
2026-05-06 11:15 24.83868 55.85364 19815 ft 417 kts 128°
2026-05-06 11:15 24.81858 55.87682 20194 ft 421 kts 140°
2026-05-06 11:16 24.79410 55.89438 20546 ft 424 kts 155°
2026-05-06 11:16 24.76590 55.90362 20905 ft 427 kts 173°
2026-05-06 11:16 24.73615 55.90281 21271 ft 429 kts 191°
2026-05-06 11:16 24.70798 55.89186 21624 ft 431 kts 209°
2026-05-06 11:17 24.68299 55.87353 21994 ft 434 kts 218°
2026-05-06 11:17 24.66008 55.85190 22375 ft 435 kts 223°
2026-05-06 11:17 24.63820 55.82887 22782 ft 436 kts 225°
2026-05-06 11:17 24.61656 55.80542 23138 ft 438 kts 225°
2026-05-06 11:18 24.59469 55.78194 23486 ft 440 kts 224°
2026-05-06 11:18 24.57253 55.75868 23835 ft 442 kts 224°
2026-05-06 11:18 24.54999 55.73553 24190 ft 443 kts 223°
2026-05-06 11:18 24.52729 55.71256 24520 ft 446 kts 223°
2026-05-06 11:19 24.50431 55.68952 24884 ft 448 kts 223°
2026-05-06 11:19 24.48126 55.66649 25258 ft 449 kts 223°
2026-05-06 11:19 24.45808 55.64337 25648 ft 451 kts 223°
2026-05-06 11:19 24.43481 55.62016 26047 ft 453 kts 223°
2026-05-06 11:20 24.41145 55.59686 26469 ft 454 kts 223°
2026-05-06 11:20 24.38807 55.57351 26882 ft 456 kts 224°
2026-05-06 11:20 24.36461 55.55009 27265 ft 457 kts 224°
2026-05-06 11:20 24.34106 55.52659 27624 ft 459 kts 224°
2026-05-06 11:21 24.31738 55.50292 27981 ft 461 kts 224°
2026-05-06 11:21 24.29370 55.47930 28381 ft 463 kts 224°
2026-05-06 11:21 24.26981 55.45550 28729 ft 465 kts 224°
2026-05-06 11:21 24.24583 55.43163 29081 ft 466 kts 224°
2026-05-06 11:22 24.22187 55.40779 29429 ft 468 kts 224°
2026-05-06 11:22 24.19778 55.38383 29776 ft 469 kts 224°
2026-05-06 11:22 24.17356 55.35976 30075 ft 471 kts 224°
2026-05-06 11:22 24.14932 55.33567 30394 ft 472 kts 224°
2026-05-06 11:23 24.12510 55.31163 30684 ft 474 kts 224°
2026-05-06 11:23 24.10071 55.28744 30961 ft 475 kts 224°
2026-05-06 11:23 24.07611 55.26303 31236 ft 476 kts 224°
2026-05-06 11:23 24.05155 55.23865 31490 ft 478 kts 224°
2026-05-06 11:24 24.02681 55.21413 31737 ft 479 kts 224°
2026-05-06 11:24 24.00209 55.18963 31979 ft 480 kts 224°
2026-05-06 11:24 23.97733 55.16511 32224 ft 482 kts 224°
2026-05-06 11:24 23.95297 55.14099 32399 ft 484 kts 224°
2026-05-06 11:25 23.92794 55.11624 32729 ft 483 kts 224°
2026-05-06 11:25 23.90273 55.09134 33092 ft 481 kts 224°
2026-05-06 11:25 23.87792 55.06685 33431 ft 479 kts 224°
2026-05-06 11:25 23.85328 55.04254 33741 ft 477 kts 224°
2026-05-06 11:26 23.82869 55.01829 34075 ft 475 kts 224°
2026-05-06 11:26 23.80419 54.99413 34352 ft 474 kts 224°
2026-05-06 11:26 23.77998 54.97024 34604 ft 474 kts 224°
2026-05-06 11:26 23.75521 54.94583 34862 ft 473 kts 224°
2026-05-06 11:27 23.73079 54.92178 35108 ft 473 kts 224°
2026-05-06 11:27 23.70669 54.89806 35327 ft 472 kts 224°
2026-05-06 11:27 23.68229 54.87406 35555 ft 472 kts 224°
2026-05-06 11:27 23.65794 54.85011 35784 ft 471 kts 224°
2026-05-06 11:28 23.63359 54.82617 36000 ft 471 kts 224°
2026-05-06 11:28 23.60934 54.80235 36176 ft 470 kts 224°
2026-05-06 11:28 23.58501 54.77846 36367 ft 470 kts 224°
2026-05-06 11:28 23.56069 54.75460 36534 ft 470 kts 224°
2026-05-06 11:29 23.53640 54.73077 36691 ft 471 kts 224°
2026-05-06 11:29 23.51209 54.70696 36920 ft 468 kts 224°
2026-05-06 11:29 23.48801 54.68337 37232 ft 464 kts 224°
2026-05-06 11:29 23.46401 54.65988 37493 ft 462 kts 224°
2026-05-06 11:30 23.44017 54.63655 37671 ft 461 kts 224°
2026-05-06 11:30 23.39234 54.58975 37758 ft 465 kts 224°
2026-05-06 11:31 23.34404 54.54256 37749 ft 466 kts 224°
2026-05-06 11:31 23.29577 54.49546 37748 ft 466 kts 224°
2026-05-06 11:32 23.24756 54.44848 37752 ft 466 kts 224°
2026-05-06 11:32 23.19928 54.40146 37757 ft 466 kts 224°
2026-05-06 11:33 23.15919 54.36243 37758 ft 466 kts 224°
2026-05-06 11:33 23.10294 54.30776 37758 ft 467 kts 224°
2026-05-06 11:34 23.05452 54.26079 37757 ft 467 kts 224°
2026-05-06 11:34 23.00611 54.21381 37757 ft 467 kts 224°
2026-05-06 11:35 22.96582 54.17475 37757 ft 467 kts 223°
2026-05-06 11:35 22.91733 54.12778 37757 ft 468 kts 223°
2026-05-06 11:36 22.86871 54.08075 37763 ft 468 kts 223°
2026-05-06 11:36 22.82060 54.03312 37767 ft 468 kts 228°
2026-05-06 11:37 22.78297 53.97625 37705 ft 465 kts 244°
2026-05-06 11:37 22.77068 53.94393 37472 ft 462 kts 252°
2026-05-06 11:37 22.76184 53.91052 37214 ft 460 kts 256°
2026-05-06 11:37 22.75482 53.87676 36969 ft 460 kts 258°
2026-05-06 11:38 22.74862 53.84294 36721 ft 460 kts 259°
2026-05-06 11:38 22.74255 53.80867 36472 ft 461 kts 259°
2026-05-06 11:38 22.73644 53.77472 36224 ft 461 kts 258°
2026-05-06 11:38 22.73008 53.74047 35976 ft 464 kts 258°
2026-05-06 11:39 22.72353 53.70615 35728 ft 467 kts 258°
2026-05-06 11:39 22.71681 53.67160 35475 ft 470 kts 258°
2026-05-06 11:39 22.71001 53.63699 35232 ft 471 kts 258°
2026-05-06 11:39 22.70325 53.60274 34985 ft 471 kts 258°
2026-05-06 11:40 22.69629 53.56756 34740 ft 472 kts 258°
2026-05-06 11:40 22.68951 53.53333 34490 ft 472 kts 258°
2026-05-06 11:40 22.68263 53.49858 34241 ft 472 kts 258°
2026-05-06 11:40 22.67575 53.46381 33992 ft 472 kts 258°
2026-05-06 11:41 22.66887 53.42908 33740 ft 473 kts 258°
2026-05-06 11:41 22.66196 53.39421 33494 ft 474 kts 258°
2026-05-06 11:41 22.65502 53.35928 33242 ft 475 kts 258°
2026-05-06 11:41 22.64806 53.32429 32998 ft 476 kts 258°
2026-05-06 11:42 22.64109 53.28926 32746 ft 476 kts 258°
2026-05-06 11:42 22.63412 53.25429 32502 ft 475 kts 258°
2026-05-06 11:42 22.62717 53.21937 32245 ft 474 kts 258°
2026-05-06 11:42 22.62023 53.18458 31990 ft 472 kts 257°
2026-05-06 11:43 22.61330 53.14991 31746 ft 470 kts 257°
2026-05-06 11:43 22.60637 53.11539 31495 ft 469 kts 257°
2026-05-06 11:43 22.59945 53.08089 31245 ft 468 kts 257°
2026-05-06 11:44 22.58569 53.01239 30752 ft 465 kts 257°
2026-05-06 11:44 22.57882 52.97819 30495 ft 464 kts 257°
2026-05-06 11:44 22.57197 52.94418 30236 ft 463 kts 257°
2026-05-06 11:44 22.56511 52.91017 29996 ft 462 kts 257°
2026-05-06 11:45 22.55829 52.87639 29758 ft 460 kts 257°
2026-05-06 11:45 22.55146 52.84253 29496 ft 459 kts 257°
2026-05-06 11:45 22.54466 52.80892 29245 ft 458 kts 257°
2026-05-06 11:45 22.53793 52.77573 29002 ft 457 kts 257°
2026-05-06 11:46 22.53103 52.74171 28744 ft 456 kts 257°
2026-05-06 11:46 22.52432 52.70872 28493 ft 455 kts 257°
2026-05-06 11:46 22.51753 52.67534 28246 ft 454 kts 257°
2026-05-06 11:46 22.51075 52.64198 27991 ft 453 kts 257°
2026-05-06 11:47 22.50399 52.60875 27807 ft 453 kts 257°
2026-05-06 11:47 22.49726 52.57575 27771 ft 445 kts 257°
2026-05-06 11:47 22.49065 52.54332 27773 ft 439 kts 257°
2026-05-06 11:47 22.48410 52.51130 27776 ft 438 kts 257°
2026-05-06 11:48 22.47749 52.47900 27775 ft 438 kts 257°
2026-05-06 11:48 22.47091 52.44685 27775 ft 438 kts 257°
2026-05-06 11:48 22.46432 52.41473 27778 ft 438 kts 257°
2026-05-06 11:48 22.45773 52.38256 27777 ft 438 kts 257°
2026-05-06 11:49 22.45115 52.35049 27776 ft 439 kts 257°
2026-05-06 11:49 22.44453 52.31832 27781 ft 439 kts 257°
2026-05-06 11:49 22.43790 52.28615 27784 ft 439 kts 257°
2026-05-06 11:49 22.43126 52.25391 27787 ft 439 kts 257°
2026-05-06 11:50 22.42462 52.22174 27784 ft 439 kts 257°
2026-05-06 11:50 22.41798 52.18960 27785 ft 439 kts 257°
2026-05-06 11:50 22.41172 52.15733 27784 ft 439 kts 260°
2026-05-06 11:50 22.40840 52.12454 27786 ft 439 kts 267°
2026-05-06 11:51 22.40853 52.09153 27790 ft 440 kts 271°
2026-05-06 11:51 22.40987 52.05872 27782 ft 440 kts 272°
2026-05-06 11:51 22.41177 52.02554 27784 ft 440 kts 273°
2026-05-06 11:51 22.41389 51.99252 27789 ft 440 kts 273°
2026-05-06 11:52 22.41609 51.95950 27783 ft 440 kts 273°
2026-05-06 11:52 22.41828 51.92661 27787 ft 440 kts 273°
2026-05-06 11:52 22.42039 51.89352 27787 ft 440 kts 273°
2026-05-06 11:52 22.42244 51.86054 27782 ft 440 kts 273°
2026-05-06 11:53 22.42441 51.82801 27786 ft 439 kts 272°
2026-05-06 11:53 22.42640 51.79463 27787 ft 439 kts 272°
2026-05-06 11:53 22.42836 51.76171 27786 ft 439 kts 272°
2026-05-06 11:53 22.43031 51.72886 27784 ft 439 kts 273°
2026-05-06 11:54 22.43227 51.69589 27783 ft 439 kts 272°
2026-05-06 11:54 22.43421 51.66295 27784 ft 439 kts 272°
2026-05-06 11:54 22.43614 51.63001 27784 ft 439 kts 272°
2026-05-06 11:54 22.43806 51.59713 27789 ft 439 kts 272°
2026-05-06 11:55 22.43998 51.56420 27799 ft 438 kts 272°
2026-05-06 11:55 22.44190 51.53134 27804 ft 438 kts 272°
2026-05-06 11:55 22.44378 51.49897 27804 ft 438 kts 272°
2026-05-06 11:55 22.44568 51.46612 27804 ft 438 kts 272°
2026-05-06 11:56 22.44757 51.43342 27804 ft 438 kts 272°
2026-05-06 11:56 22.44947 51.40046 27804 ft 437 kts 272°
2026-05-06 11:56 22.45134 51.36768 27804 ft 437 kts 272°
2026-05-06 11:56 22.45321 51.33486 27804 ft 437 kts 272°
2026-05-06 11:57 22.45506 51.30210 27804 ft 437 kts 272°
2026-05-06 11:57 22.45691 51.26936 27810 ft 437 kts 272°
2026-05-06 11:57 22.45877 51.23659 27814 ft 436 kts 272°
2026-05-06 11:57 22.46061 51.20387 27813 ft 436 kts 272°
2026-05-06 11:58 22.46244 51.17120 27813 ft 436 kts 272°
2026-05-06 11:58 22.46427 51.13852 27814 ft 436 kts 272°
2026-05-06 11:58 22.46609 51.10584 27813 ft 436 kts 272°
2026-05-06 11:58 22.46793 51.07317 27813 ft 435 kts 272°
2026-05-06 11:59 22.46975 51.04049 27813 ft 435 kts 272°
2026-05-06 11:59 22.47154 51.00782 27813 ft 435 kts 272°
2026-05-06 11:59 22.47332 50.97514 27814 ft 435 kts 272°
2026-05-06 11:59 22.47510 50.94249 27813 ft 435 kts 272°
2026-05-06 12:00 22.47688 50.90980 27813 ft 435 kts 272°
2026-05-06 12:00 22.47864 50.87715 27813 ft 435 kts 272°
2026-05-06 12:00 22.48040 50.84447 27813 ft 435 kts 272°
2026-05-06 12:00 22.48216 50.81184 27813 ft 435 kts 272°
2026-05-06 12:01 22.48391 50.77918 27814 ft 435 kts 272°
2026-05-06 12:01 22.48564 50.74699 27813 ft 434 kts 272°
2026-05-06 12:01 22.48738 50.71443 27813 ft 434 kts 272°
2026-05-06 12:01 22.48910 50.68195 27813 ft 433 kts 272°
2026-05-06 12:02 22.49082 50.64939 27813 ft 434 kts 272°
2026-05-06 12:02 22.49254 50.61688 27813 ft 433 kts 272°
2026-05-06 12:02 22.49424 50.58434 27813 ft 433 kts 272°
2026-05-06 12:02 22.49595 50.55174 27814 ft 433 kts 272°
2026-05-06 12:03 22.49764 50.51927 27814 ft 433 kts 271°
2026-05-06 12:03 22.49932 50.48671 27813 ft 433 kts 271°
2026-05-06 12:03 22.50099 50.45432 27813 ft 433 kts 271°
2026-05-06 12:03 22.50267 50.42161 27813 ft 433 kts 271°
2026-05-06 12:04 22.50433 50.38910 27813 ft 433 kts 271°
2026-05-06 12:04 22.50599 50.35659 27813 ft 433 kts 271°
2026-05-06 12:04 22.50765 50.32401 27813 ft 434 kts 271°
2026-05-06 12:04 22.50930 50.29144 27813 ft 433 kts 271°
2026-05-06 12:05 22.51093 50.25900 27813 ft 433 kts 271°
2026-05-06 12:05 22.51257 50.22643 27813 ft 433 kts 271°
2026-05-06 12:05 22.51420 50.19393 27813 ft 433 kts 271°
2026-05-06 12:05 22.51583 50.16126 27814 ft 433 kts 271°
2026-05-06 12:06 22.51745 50.12874 27813 ft 433 kts 271°
2026-05-06 12:06 22.51905 50.09622 27813 ft 433 kts 271°
2026-05-06 12:06 22.52066 50.06360 27813 ft 433 kts 271°
2026-05-06 12:06 22.52224 50.03116 27814 ft 433 kts 271°
2026-05-06 12:07 22.52382 49.99862 27813 ft 433 kts 271°
2026-05-06 12:07 22.52539 49.96603 27814 ft 433 kts 271°
2026-05-06 12:07 22.52696 49.93354 27813 ft 433 kts 271°
2026-05-06 12:07 22.52853 49.90107 27813 ft 433 kts 271°
2026-05-06 12:08 22.53010 49.86862 27813 ft 433 kts 271°
2026-05-06 12:08 22.53166 49.83612 27831 ft 433 kts 271°
2026-05-06 12:08 22.53320 49.80358 27841 ft 433 kts 271°
2026-05-06 12:08 22.53476 49.77102 27841 ft 433 kts 271°
2026-05-06 12:09 22.53669 49.73867 27841 ft 433 kts 273°
2026-05-06 12:09 22.53961 49.70622 27841 ft 433 kts 274°
2026-05-06 12:09 22.54300 49.67387 27841 ft 433 kts 275°
2026-05-06 12:09 22.54644 49.64193 27847 ft 433 kts 275°
2026-05-06 12:10 22.54986 49.60957 27847 ft 432 kts 274°
2026-05-06 12:10 22.55315 49.57729 27851 ft 432 kts 274°
2026-05-06 12:10 22.55632 49.54491 27850 ft 431 kts 274°
2026-05-06 12:10 22.55939 49.51265 27841 ft 431 kts 274°
2026-05-06 12:11 22.56244 49.48034 27840 ft 432 kts 274°
2026-05-06 12:11 22.56547 49.44798 27840 ft 432 kts 274°
2026-05-06 12:11 22.56850 49.41570 27847 ft 432 kts 274°
2026-05-06 12:11 22.57152 49.38336 27849 ft 432 kts 274°
2026-05-06 12:12 22.57457 49.35104 27852 ft 432 kts 274°
2026-05-06 12:12 22.57761 49.31869 27853 ft 432 kts 274°
2026-05-06 12:12 22.58062 49.28635 27852 ft 432 kts 274°
2026-05-06 12:12 22.58360 49.25410 27859 ft 432 kts 274°
2026-05-06 12:13 22.58659 49.22174 27860 ft 432 kts 274°
2026-05-06 12:13 22.58957 49.18941 27860 ft 431 kts 274°
2026-05-06 12:13 22.59254 49.15716 27860 ft 431 kts 274°
2026-05-06 12:13 22.59551 49.12485 27860 ft 431 kts 274°
2026-05-06 12:14 22.59847 49.09257 27860 ft 431 kts 274°
2026-05-06 12:14 22.60142 49.06029 27860 ft 431 kts 274°
2026-05-06 12:14 22.60437 49.02818 27859 ft 431 kts 274°
2026-05-06 12:14 22.60733 48.99583 27859 ft 431 kts 274°
2026-05-06 12:15 22.61026 48.96356 27860 ft 431 kts 274°
2026-05-06 12:15 22.61317 48.93144 27860 ft 430 kts 273°
2026-05-06 12:15 22.61609 48.89906 27860 ft 430 kts 274°
2026-05-06 12:15 22.61900 48.86686 27860 ft 431 kts 274°
2026-05-06 12:16 22.62191 48.83457 27860 ft 430 kts 274°
2026-05-06 12:16 22.62482 48.80233 27860 ft 430 kts 274°
2026-05-06 12:16 22.62771 48.77011 27866 ft 430 kts 274°
2026-05-06 12:16 22.63060 48.73785 27859 ft 430 kts 274°
2026-05-06 12:17 22.63349 48.70564 27858 ft 430 kts 274°
2026-05-06 12:17 22.63634 48.67378 27859 ft 431 kts 274°
2026-05-06 12:17 22.63921 48.64161 27860 ft 431 kts 273°
2026-05-06 12:17 22.64207 48.60932 27859 ft 431 kts 273°
2026-05-06 12:18 22.64493 48.57704 27859 ft 431 kts 273°
2026-05-06 12:18 22.64779 48.54482 27860 ft 430 kts 273°
2026-05-06 12:18 22.65063 48.51256 27859 ft 430 kts 273°
2026-05-06 12:18 22.65346 48.48029 27860 ft 430 kts 273°
2026-05-06 12:19 22.65629 48.44806 27859 ft 430 kts 273°
2026-05-06 12:19 22.65912 48.41584 27860 ft 430 kts 273°
2026-05-06 12:19 22.66194 48.38358 27859 ft 430 kts 273°
2026-05-06 12:19 22.66476 48.35136 27860 ft 430 kts 273°
2026-05-06 12:20 22.66756 48.31909 27860 ft 430 kts 273°
2026-05-06 12:20 22.67036 48.28682 27858 ft 430 kts 273°
2026-05-06 12:20 22.67315 48.25463 27852 ft 430 kts 273°
2026-05-06 12:20 22.67593 48.22240 27844 ft 430 kts 273°
2026-05-06 12:21 22.67871 48.19013 27848 ft 430 kts 273°
2026-05-06 12:21 22.68148 48.15786 27851 ft 430 kts 273°
2026-05-06 12:21 22.68425 48.12567 27846 ft 430 kts 273°
2026-05-06 12:21 22.68701 48.09340 27853 ft 430 kts 273°
2026-05-06 12:22 22.68976 48.06121 27852 ft 430 kts 273°
2026-05-06 12:22 22.69251 48.02897 27852 ft 430 kts 273°
2026-05-06 12:22 22.69528 47.99671 27850 ft 430 kts 273°
2026-05-06 12:22 22.69800 47.96448 27849 ft 430 kts 273°
2026-05-06 12:23 22.70068 47.93234 27850 ft 429 kts 273°
2026-05-06 12:23 22.70334 47.90028 27849 ft 429 kts 273°
2026-05-06 12:23 22.70598 47.86848 27853 ft 429 kts 273°
2026-05-06 12:23 22.70865 47.83636 27846 ft 429 kts 273°
2026-05-06 12:24 22.71133 47.80419 27853 ft 429 kts 273°
2026-05-06 12:24 22.71400 47.77203 27850 ft 429 kts 273°
2026-05-06 12:24 22.71665 47.74002 27848 ft 428 kts 273°
2026-05-06 12:24 22.71933 47.70777 27852 ft 428 kts 273°
2026-05-06 12:25 22.72198 47.67572 27852 ft 428 kts 273°
2026-05-06 12:25 22.72462 47.64362 27852 ft 428 kts 273°
2026-05-06 12:25 22.72724 47.61154 27853 ft 427 kts 273°
2026-05-06 12:25 22.72986 47.57952 27850 ft 427 kts 273°
2026-05-06 12:26 22.73158 47.55835 27856 ft 427 kts 273°
2026-05-06 12:26 22.73420 47.52627 27867 ft 427 kts 273°
2026-05-06 12:26 22.73680 47.49427 27869 ft 426 kts 273°
2026-05-06 12:26 22.73939 47.46232 27869 ft 426 kts 273°
2026-05-06 12:27 22.74197 47.43039 27869 ft 426 kts 273°
2026-05-06 12:27 22.74456 47.39832 27870 ft 426 kts 273°
2026-05-06 12:27 22.74713 47.36637 27876 ft 426 kts 273°
2026-05-06 12:27 22.74970 47.33441 27869 ft 426 kts 272°
2026-05-06 12:28 22.75225 47.30252 27867 ft 425 kts 272°
2026-05-06 12:28 22.75480 47.27061 27868 ft 425 kts 272°
2026-05-06 12:28 22.75733 47.23874 27869 ft 425 kts 272°
2026-05-06 12:28 22.75987 47.20673 27930 ft 426 kts 272°
2026-05-06 12:29 22.76241 47.17454 28052 ft 433 kts 272°
2026-05-06 12:29 22.76502 47.14185 28223 ft 441 kts 272°
2026-05-06 12:29 22.76768 47.10842 28443 ft 447 kts 272°
2026-05-06 12:29 22.77035 47.07470 28732 ft 450 kts 272°
2026-05-06 12:30 22.77303 47.04082 29086 ft 452 kts 272°
2026-05-06 12:30 22.77572 47.00679 29413 ft 455 kts 272°
2026-05-06 12:30 22.77843 46.97254 29763 ft 457 kts 272°
2026-05-06 12:30 22.78114 46.93821 30103 ft 458 kts 272°
2026-05-06 12:31 22.78384 46.90371 30456 ft 460 kts 272°
2026-05-06 12:31 22.78654 46.86914 30779 ft 461 kts 272°
2026-05-06 12:31 22.78923 46.83448 31087 ft 463 kts 272°
2026-05-06 12:31 22.79192 46.79975 31381 ft 464 kts 272°
2026-05-06 12:32 22.79463 46.76473 31665 ft 466 kts 272°
2026-05-06 12:32 22.79733 46.72980 31911 ft 468 kts 272°
2026-05-06 12:32 22.80005 46.69443 32180 ft 469 kts 272°
2026-05-06 12:32 22.80275 46.65926 32431 ft 470 kts 272°
2026-05-06 12:33 22.80546 46.62380 32672 ft 472 kts 272°
2026-05-06 12:33 22.80818 46.58832 32947 ft 472 kts 272°
2026-05-06 12:33 22.81087 46.55312 33312 ft 470 kts 272°
2026-05-06 12:33 22.81357 46.51771 33666 ft 468 kts 272°
2026-05-06 12:34 22.81623 46.48266 33990 ft 467 kts 272°
2026-05-06 12:34 22.81888 46.44762 34319 ft 466 kts 272°
2026-05-06 12:34 22.82150 46.41272 34587 ft 465 kts 272°
2026-05-06 12:34 22.82412 46.37774 34850 ft 465 kts 272°
2026-05-06 12:35 22.82672 46.34284 35114 ft 464 kts 272°
2026-05-06 12:35 22.82930 46.30795 35375 ft 463 kts 272°
2026-05-06 12:35 22.83187 46.27317 35654 ft 462 kts 272°
2026-05-06 12:35 22.83441 46.23852 35917 ft 461 kts 272°
2026-05-06 12:36 22.83696 46.20391 36123 ft 461 kts 272°
2026-05-06 12:36 22.83949 46.16931 36361 ft 461 kts 272°
2026-05-06 12:36 22.84202 46.13475 36552 ft 461 kts 272°
2026-05-06 12:36 22.84454 46.10006 36793 ft 459 kts 272°
2026-05-06 12:37 22.84699 46.06622 37122 ft 456 kts 272°
2026-05-06 12:37 22.84946 46.03204 37431 ft 452 kts 271°
2026-05-06 12:37 22.85190 45.99816 37677 ft 451 kts 272°
2026-05-06 12:37 22.85433 45.96435 37849 ft 450 kts 271°
2026-05-06 12:38 22.85907 45.89829 37888 ft 452 kts 271°
2026-05-06 12:38 22.86392 45.83052 37887 ft 450 kts 271°
2026-05-06 12:39 22.86871 45.76291 37891 ft 450 kts 271°
2026-05-06 12:39 22.87323 45.69841 37896 ft 450 kts 271°
2026-05-06 12:40 22.87797 45.63070 37900 ft 450 kts 271°
2026-05-06 12:40 22.88268 45.56317 37895 ft 449 kts 271°
2026-05-06 12:41 22.88734 45.49561 37922 ft 449 kts 271°
2026-05-06 12:41 22.89196 45.42830 37926 ft 449 kts 271°
2026-05-06 12:42 22.89653 45.36075 37922 ft 449 kts 271°
2026-05-06 12:42 22.90112 45.29319 37921 ft 449 kts 271°
2026-05-06 12:43 22.90569 45.22569 37935 ft 449 kts 271°
2026-05-06 12:43 22.91020 45.15871 37935 ft 449 kts 271°
2026-05-06 12:44 22.91431 45.09621 37936 ft 448 kts 271°
2026-05-06 12:44 22.91997 45.02875 37940 ft 451 kts 276°
2026-05-06 12:45 22.93703 44.96527 37945 ft 456 kts 287°
2026-05-06 12:46 22.97457 44.87325 37939 ft 459 kts 290°
2026-05-06 12:46 23.00148 44.81051 37946 ft 459 kts 290°
2026-05-06 12:47 23.02809 44.74761 37949 ft 458 kts 290°
2026-05-06 12:47 23.05429 44.68499 37956 ft 458 kts 289°
2026-05-06 12:48 23.08054 44.62199 37950 ft 458 kts 289°
2026-05-06 12:48 23.10676 44.55899 37950 ft 458 kts 289°
2026-05-06 12:49 23.13299 44.49596 37959 ft 458 kts 289°
2026-05-06 12:49 23.15913 44.43299 37967 ft 457 kts 289°
2026-05-06 12:50 23.18395 44.37313 37963 ft 458 kts 289°
2026-05-06 12:50 23.20285 44.32752 37957 ft 458 kts 289°
2026-05-06 12:51 23.22897 44.26440 37957 ft 457 kts 289°
2026-05-06 12:51 23.25432 44.20307 37965 ft 456 kts 289°
2026-05-06 12:52 23.27949 44.14211 37964 ft 456 kts 289°
2026-05-06 12:52 23.30025 44.09167 37972 ft 456 kts 289°
2026-05-06 12:53 23.32616 44.02867 37977 ft 456 kts 289°
2026-05-06 12:53 23.35209 43.96574 37978 ft 456 kts 288°
2026-05-06 12:54 23.37797 43.90274 37977 ft 456 kts 288°
2026-05-06 12:54 23.40379 43.83982 37978 ft 455 kts 288°
2026-05-06 12:55 23.42956 43.77686 37962 ft 455 kts 288°
2026-05-06 12:55 23.45529 43.71392 37977 ft 455 kts 288°
2026-05-06 12:56 23.48097 43.65103 37978 ft 455 kts 288°
2026-05-06 12:56 23.50669 43.58797 37963 ft 455 kts 288°
2026-05-06 12:57 23.53238 43.52488 37981 ft 455 kts 288°
2026-05-06 12:57 23.55797 43.46194 37981 ft 454 kts 288°
2026-05-06 12:58 23.58351 43.39906 37981 ft 454 kts 288°
2026-05-06 12:58 23.60893 43.33637 37981 ft 455 kts 288°
2026-05-06 12:59 23.63450 43.27330 37980 ft 454 kts 288°
2026-05-06 12:59 23.65997 43.21035 37979 ft 454 kts 288°
2026-05-06 13:00 23.68541 43.14733 37982 ft 454 kts 288°
2026-05-06 13:00 23.71084 43.08426 37979 ft 453 kts 288°
2026-05-06 13:01 23.73620 43.02132 37980 ft 453 kts 288°
2026-05-06 13:01 23.76154 42.95835 37981 ft 453 kts 288°
2026-05-06 13:02 23.78681 42.89546 37979 ft 452 kts 287°
2026-05-06 13:02 23.81203 42.83256 37980 ft 452 kts 287°
2026-05-06 13:03 23.83721 42.76965 37981 ft 452 kts 287°
2026-05-06 13:03 23.86241 42.70669 37980 ft 452 kts 287°
2026-05-06 13:04 23.88748 42.64392 37981 ft 451 kts 287°
2026-05-06 13:04 23.91247 42.58119 37986 ft 450 kts 287°
2026-05-06 13:05 23.93753 42.51851 37989 ft 449 kts 287°
2026-05-06 13:05 23.96254 42.45581 37990 ft 450 kts 287°
2026-05-06 13:06 23.98740 42.39329 37990 ft 449 kts 287°
2026-05-06 13:06 24.01229 42.33066 37991 ft 448 kts 286°
2026-05-06 13:07 24.03687 42.26873 37989 ft 447 kts 286°
2026-05-06 13:07 24.06160 42.20636 37990 ft 447 kts 286°
2026-05-06 13:08 24.08625 42.14406 37991 ft 447 kts 286°
2026-05-06 13:08 24.11096 42.08148 37989 ft 446 kts 286°
2026-05-06 13:09 24.13553 42.01924 37989 ft 446 kts 286°
2026-05-06 13:09 24.16012 41.95681 37991 ft 446 kts 286°
2026-05-06 13:10 24.18467 41.89438 37989 ft 446 kts 286°
2026-05-06 13:10 24.20919 41.83199 37980 ft 446 kts 286°
2026-05-06 13:11 24.23368 41.76958 37980 ft 446 kts 286°
2026-05-06 13:11 24.25813 41.70718 37981 ft 446 kts 286°
2026-05-06 13:12 24.28253 41.64480 37981 ft 445 kts 286°
2026-05-06 13:12 24.30689 41.58243 37981 ft 445 kts 285°
2026-05-06 13:13 24.32710 41.53064 37988 ft 444 kts 285°
2026-05-06 13:13 24.35137 41.46834 37990 ft 444 kts 285°
2026-05-06 13:14 24.37559 41.40612 37987 ft 443 kts 285°
2026-05-06 13:14 24.39973 41.34398 37980 ft 443 kts 285°
2026-05-06 13:15 24.42384 41.28181 37981 ft 442 kts 285°
2026-05-06 13:15 24.44787 41.21973 37979 ft 442 kts 285°
2026-05-06 13:16 24.47191 41.15767 37978 ft 441 kts 285°
2026-05-06 13:16 24.49591 41.09566 37978 ft 441 kts 285°
2026-05-06 13:17 24.51964 41.03415 37930 ft 440 kts 285°
2026-05-06 13:17 24.54348 40.97222 37921 ft 440 kts 285°
2026-05-06 13:18 24.56725 40.91036 37932 ft 440 kts 285°
2026-05-06 13:18 24.59097 40.84857 37946 ft 439 kts 285°
2026-05-06 13:19 24.61467 40.78678 37948 ft 439 kts 285°
2026-05-06 13:19 24.63837 40.72494 37950 ft 438 kts 285°
2026-05-06 13:20 24.66195 40.66323 37957 ft 438 kts 285°
2026-05-06 13:20 24.68553 40.60155 37942 ft 437 kts 285°
2026-05-06 13:21 24.70902 40.53994 37925 ft 437 kts 285°
2026-05-06 13:21 24.73250 40.47825 37923 ft 437 kts 284°
2026-05-06 13:22 24.75591 40.41661 37924 ft 437 kts 285°
2026-05-06 13:22 24.77918 40.35536 37924 ft 437 kts 284°
2026-05-06 13:23 24.80254 40.29376 37924 ft 436 kts 284°
2026-05-06 13:23 24.82584 40.23224 37915 ft 436 kts 284°
2026-05-06 13:24 24.84915 40.17059 37916 ft 436 kts 284°
2026-05-06 13:24 24.87241 40.10897 37916 ft 436 kts 284°
2026-05-06 13:25 24.89565 40.04728 37915 ft 436 kts 284°
2026-05-06 13:25 24.91886 39.98564 37916 ft 435 kts 284°
2026-05-06 13:26 24.94202 39.92406 37915 ft 434 kts 284°
2026-05-06 13:26 24.96509 39.86256 37915 ft 434 kts 284°
2026-05-06 13:27 24.98807 39.80118 37915 ft 433 kts 284°
2026-05-06 13:27 25.01101 39.73980 37916 ft 433 kts 284°
2026-05-06 13:28 25.03385 39.67872 37913 ft 434 kts 284°
2026-05-06 13:28 25.05683 39.61712 37908 ft 434 kts 284°
2026-05-06 13:29 25.07978 39.55554 37901 ft 434 kts 284°
2026-05-06 13:29 25.10268 39.49397 37894 ft 433 kts 284°
2026-05-06 13:30 25.12557 39.43243 37901 ft 434 kts 284°
2026-05-06 13:30 25.14836 39.37090 37899 ft 433 kts 284°
2026-05-06 13:31 25.17116 39.30926 37896 ft 434 kts 284°
2026-05-06 13:31 25.19396 39.24764 37893 ft 433 kts 284°
2026-05-06 13:32 25.21668 39.18604 37890 ft 433 kts 284°
2026-05-06 13:32 25.23941 39.12437 37888 ft 433 kts 284°
2026-05-06 13:33 25.26215 39.06269 37885 ft 434 kts 283°
2026-05-06 13:33 25.28481 39.00099 37890 ft 434 kts 283°
2026-05-06 13:34 25.30747 38.93928 37888 ft 433 kts 284°
2026-05-06 13:34 25.33007 38.87764 37883 ft 433 kts 283°
2026-05-06 13:35 25.35263 38.81596 37879 ft 433 kts 283°
2026-05-06 13:35 25.37503 38.75465 37881 ft 433 kts 283°
2026-05-06 13:36 25.39754 38.69296 37881 ft 433 kts 283°
2026-05-06 13:36 25.42001 38.63122 37881 ft 432 kts 283°
2026-05-06 13:37 25.44246 38.56947 37882 ft 432 kts 283°
2026-05-06 13:37 25.46486 38.50779 37877 ft 433 kts 283°
2026-05-06 13:38 25.48728 38.44595 37889 ft 432 kts 283°
2026-05-06 13:38 25.50964 38.38420 37885 ft 432 kts 283°
2026-05-06 13:39 25.53197 38.32234 37884 ft 432 kts 283°
2026-05-06 13:39 25.55430 38.26054 37891 ft 432 kts 283°
2026-05-06 13:40 25.57655 38.19883 37888 ft 432 kts 283°
2026-05-06 13:40 25.59880 38.13694 37895 ft 432 kts 283°
2026-05-06 13:41 25.62097 38.07522 37887 ft 431 kts 283°
2026-05-06 13:41 25.64310 38.01351 37879 ft 432 kts 283°
2026-05-06 13:42 25.66511 37.95203 37876 ft 432 kts 283°
2026-05-06 13:42 25.68721 37.89023 37878 ft 432 kts 283°
2026-05-06 13:43 25.70933 37.82824 37883 ft 432 kts 283°
2026-05-06 13:43 25.73128 37.76646 37899 ft 431 kts 283°
2026-05-06 13:44 25.75325 37.70449 37866 ft 431 kts 283°
2026-05-06 13:44 25.77531 37.64250 37866 ft 431 kts 283°
2026-05-06 13:45 25.79745 37.58032 37877 ft 433 kts 283°
2026-05-06 13:45 25.83037 37.48766 37865 ft 432 kts 283°
2026-05-06 13:46 25.85233 37.42558 37865 ft 432 kts 283°
2026-05-06 13:46 25.87426 37.36377 37871 ft 433 kts 284°
2026-05-06 13:47 25.90423 37.30453 37862 ft 446 kts 295°
2026-05-06 13:47 25.94137 37.24877 37867 ft 451 kts 298°
2026-05-06 13:48 25.98007 37.19388 37865 ft 451 kts 298°
2026-05-06 13:48 26.01871 37.13891 37881 ft 451 kts 298°
2026-05-06 13:49 26.05703 37.08374 37883 ft 451 kts 298°
2026-05-06 13:49 26.09529 37.02838 37887 ft 451 kts 298°
2026-05-06 13:50 26.13345 36.97305 37885 ft 451 kts 298°
2026-05-06 13:50 26.17132 36.91811 37891 ft 451 kts 298°
2026-05-06 13:51 26.20936 36.86288 37894 ft 451 kts 298°
2026-05-06 13:51 26.24754 36.80734 37904 ft 451 kts 298°
2026-05-06 13:52 26.28571 36.75177 37906 ft 452 kts 298°
2026-05-06 13:52 26.32392 36.69610 37906 ft 452 kts 298°
2026-05-06 13:53 26.36205 36.64047 37906 ft 452 kts 298°
2026-05-06 13:53 26.40018 36.58479 37906 ft 452 kts 298°
2026-05-06 13:54 26.43828 36.52904 37907 ft 452 kts 298°
2026-05-06 13:54 26.47616 36.47356 37905 ft 452 kts 298°
2026-05-06 13:55 26.51422 36.41773 37914 ft 452 kts 298°
2026-05-06 13:55 26.55221 36.36196 37918 ft 452 kts 298°
2026-05-06 13:56 26.59025 36.30604 37915 ft 452 kts 298°
2026-05-06 13:56 26.62828 36.25005 37916 ft 452 kts 298°
2026-05-06 13:57 26.66622 36.19417 37918 ft 452 kts 298°
2026-05-06 13:57 26.70425 36.13805 37923 ft 452 kts 298°
2026-05-06 13:58 26.74226 36.08189 37925 ft 453 kts 298°
2026-05-06 13:58 26.78002 36.02600 37923 ft 452 kts 298°
2026-05-06 13:59 26.81797 35.96982 37925 ft 453 kts 298°
2026-05-06 13:59 26.85591 35.91358 37923 ft 452 kts 298°
2026-05-06 14:00 26.89374 35.85742 37937 ft 452 kts 299°
2026-05-06 14:00 26.93156 35.80120 37933 ft 452 kts 298°
2026-05-06 14:01 26.96942 35.74484 37933 ft 452 kts 299°
2026-05-06 14:01 27.00724 35.68846 37933 ft 452 kts 299°
2026-05-06 14:02 27.04498 35.63216 37938 ft 452 kts 299°
2026-05-06 14:02 27.08278 35.57572 37951 ft 452 kts 299°
2026-05-06 14:03 27.12030 35.51958 37940 ft 452 kts 299°
2026-05-06 14:03 27.15792 35.46316 37938 ft 452 kts 299°
2026-05-06 14:04 27.19559 35.40666 37949 ft 452 kts 299°
2026-05-06 14:04 27.23327 35.35010 37961 ft 451 kts 299°
2026-05-06 14:05 27.27084 35.29364 37947 ft 451 kts 299°
2026-05-06 14:05 27.30232 35.24625 37958 ft 451 kts 299°
2026-05-06 14:06 27.33985 35.18970 37952 ft 451 kts 299°
2026-05-06 14:06 27.37706 35.13353 37963 ft 451 kts 299°
2026-05-06 14:07 27.41469 35.07662 37965 ft 451 kts 299°
2026-05-06 14:07 27.45186 35.02040 37974 ft 450 kts 299°
2026-05-06 14:08 27.48915 34.96391 37957 ft 450 kts 299°
2026-05-06 14:08 27.50848 34.93600 38069 ft 455 kts 303°
2026-05-06 14:08 27.53051 34.91009 38260 ft 459 kts 307°
2026-05-06 14:09 27.55337 34.88504 38434 ft 460 kts 308°
2026-05-06 14:09 27.57660 34.86022 38565 ft 460 kts 309°
2026-05-06 14:09 27.59997 34.83559 38756 ft 459 kts 309°
2026-05-06 14:09 27.62330 34.81111 38902 ft 459 kts 309°
2026-05-06 14:10 27.64656 34.78669 39040 ft 459 kts 309°
2026-05-06 14:10 27.66990 34.76208 39149 ft 460 kts 309°
2026-05-06 14:10 27.69328 34.73736 39252 ft 460 kts 309°
2026-05-06 14:10 27.71654 34.71273 39369 ft 460 kts 309°
2026-05-06 14:11 27.73992 34.68796 39484 ft 460 kts 309°
2026-05-06 14:11 27.76321 34.66326 39599 ft 460 kts 309°
2026-05-06 14:11 27.80985 34.61371 39805 ft 460 kts 309°
2026-05-06 14:12 27.85649 34.56411 39953 ft 461 kts 309°
2026-05-06 14:12 27.90325 34.51432 39959 ft 462 kts 309°
2026-05-06 14:13 27.95011 34.46438 39959 ft 462 kts 309°
2026-05-06 14:13 27.99631 34.41390 39966 ft 458 kts 305°
2026-05-06 14:14 28.03745 34.35928 39962 ft 456 kts 303°
2026-05-06 14:14 28.07764 34.30382 39956 ft 455 kts 303°
2026-05-06 14:15 28.11760 34.24824 39962 ft 455 kts 302°
2026-05-06 14:15 28.15756 34.19270 39969 ft 455 kts 302°
2026-05-06 14:16 28.19727 34.13750 39962 ft 455 kts 302°
2026-05-06 14:16 28.23725 34.08195 39981 ft 455 kts 302°
2026-05-06 14:17 28.27722 34.02636 39962 ft 455 kts 302°
2026-05-06 14:17 28.31710 33.97073 39981 ft 455 kts 302°
2026-05-06 14:18 28.35709 33.91494 39980 ft 454 kts 303°
2026-05-06 14:18 28.39693 33.85925 39974 ft 455 kts 302°
2026-05-06 14:19 28.43673 33.80354 39967 ft 454 kts 302°
2026-05-06 14:19 28.47655 33.74778 39983 ft 454 kts 302°
2026-05-06 14:20 28.51644 33.69200 39968 ft 454 kts 303°
2026-05-06 14:20 28.55619 33.63622 39963 ft 454 kts 302°
2026-05-06 14:21 28.59592 33.58037 39974 ft 454 kts 303°
2026-05-06 14:21 28.63564 33.52454 39973 ft 453 kts 303°
2026-05-06 14:22 28.67522 33.46884 39964 ft 453 kts 303°
2026-05-06 14:22 28.71451 33.41329 39963 ft 453 kts 303°
2026-05-06 14:23 28.75401 33.35740 39974 ft 453 kts 303°
2026-05-06 14:23 28.79343 33.30160 39964 ft 452 kts 303°
2026-05-06 14:24 28.83278 33.24583 39986 ft 452 kts 303°
2026-05-06 14:24 28.87216 33.18991 39985 ft 452 kts 303°
2026-05-06 14:25 28.91158 33.13388 39991 ft 452 kts 303°
2026-05-06 14:25 28.95081 33.07809 39982 ft 451 kts 303°
2026-05-06 14:26 28.98986 33.02247 40000 ft 451 kts 303°
2026-05-06 14:26 29.02906 32.96653 39999 ft 450 kts 303°
2026-05-06 14:27 29.06814 32.91064 40001 ft 450 kts 303°
2026-05-06 14:27 29.10721 32.85473 40012 ft 450 kts 303°
2026-05-06 14:28 29.14622 32.79885 40026 ft 450 kts 303°
2026-05-06 14:28 29.18520 32.74295 40028 ft 449 kts 303°
2026-05-06 14:29 29.22383 32.68745 40030 ft 449 kts 303°
2026-05-06 14:29 29.26274 32.63149 40036 ft 448 kts 303°
2026-05-06 14:30 29.30151 32.57565 40035 ft 448 kts 303°
2026-05-06 14:30 29.33997 32.51968 40034 ft 447 kts 303°
2026-05-06 14:31 29.37836 32.46355 40040 ft 447 kts 303°
2026-05-06 14:31 29.41664 32.40759 40044 ft 446 kts 303°
2026-05-06 14:32 29.45500 32.35151 40045 ft 446 kts 303°
2026-05-06 14:32 29.49324 32.29555 40044 ft 446 kts 303°
2026-05-06 14:33 29.53145 32.23956 40053 ft 446 kts 303°
2026-05-06 14:33 29.56962 32.18354 40062 ft 446 kts 303°
2026-05-06 14:34 29.60782 32.12741 40056 ft 445 kts 303°
2026-05-06 14:34 29.64592 32.07135 40053 ft 445 kts 303°
2026-05-06 14:35 29.68392 32.01535 40055 ft 445 kts 303°
2026-05-06 14:35 29.72196 31.95922 40054 ft 444 kts 303°
2026-05-06 14:36 29.75993 31.90313 40052 ft 444 kts 303°
2026-05-06 14:36 29.79750 31.84744 40061 ft 443 kts 302°
2026-05-06 14:37 29.83413 31.79058 40043 ft 443 kts 301°
2026-05-06 14:37 29.87037 31.73330 40043 ft 443 kts 301°
2026-05-06 14:38 29.90679 31.67606 40044 ft 443 kts 302°
2026-05-06 14:38 29.94344 31.61903 40044 ft 443 kts 302°
2026-05-06 14:39 29.98036 31.56206 40044 ft 443 kts 302°
2026-05-06 14:39 30.01719 31.50513 40043 ft 443 kts 302°
2026-05-06 14:40 30.05401 31.44806 40043 ft 443 kts 302°
2026-05-06 14:40 30.09181 31.39171 40043 ft 447 kts 307°
2026-05-06 14:41 30.13627 31.34101 40043 ft 450 kts 311°
2026-05-06 14:41 30.18213 31.29166 40053 ft 451 kts 312°
2026-05-06 14:42 30.22814 31.24256 40045 ft 450 kts 312°
2026-05-06 14:42 30.27403 31.19336 40043 ft 450 kts 311°
2026-05-06 14:43 30.31973 31.14414 40055 ft 450 kts 311°
2026-05-06 14:43 30.36559 31.09464 40054 ft 449 kts 311°
2026-05-06 14:44 30.41098 31.04559 40056 ft 449 kts 311°
2026-05-06 14:45 30.47941 30.97152 40055 ft 449 kts 311°
2026-05-06 14:45 30.52503 30.92207 40052 ft 449 kts 311°
2026-05-06 14:46 30.57061 30.87258 40052 ft 449 kts 311°
2026-05-06 14:46 30.61621 30.82302 40060 ft 448 kts 311°
2026-05-06 14:47 30.66174 30.77345 40070 ft 448 kts 311°
2026-05-06 14:47 30.70722 30.72388 40075 ft 448 kts 311°
2026-05-06 14:48 30.75266 30.67428 40076 ft 448 kts 311°
2026-05-06 14:48 30.79808 30.62464 40081 ft 448 kts 311°
2026-05-06 14:49 30.84339 30.57505 40082 ft 448 kts 311°
2026-05-06 14:49 30.88881 30.52527 40089 ft 448 kts 311°
2026-05-06 14:50 30.93387 30.47581 40091 ft 448 kts 311°
2026-05-06 14:50 30.97918 30.42602 40091 ft 448 kts 311°
2026-05-06 14:51 31.02453 30.37611 40100 ft 448 kts 311°
2026-05-06 14:51 31.06842 30.32481 40101 ft 444 kts 305°
2026-05-06 14:52 31.10062 30.26451 40100 ft 435 kts 290°
2026-05-06 14:52 31.12104 30.19824 40100 ft 434 kts 286°
2026-05-06 14:53 31.13917 30.13106 40101 ft 434 kts 285°
2026-05-06 14:53 31.15708 30.06376 40100 ft 434 kts 285°
2026-05-06 14:54 31.17522 29.99645 40100 ft 435 kts 285°
2026-05-06 14:54 31.20053 29.93234 40100 ft 438 kts 300°
2026-05-06 14:55 31.23525 29.87357 40100 ft 440 kts 302°
2026-05-06 14:55 31.26528 29.82561 40101 ft 440 kts 303°
2026-05-06 14:56 31.30754 29.75853 40101 ft 441 kts 303°
2026-05-06 14:56 31.33788 29.71003 40101 ft 441 kts 302°
2026-05-06 14:57 31.37402 29.65194 40100 ft 441 kts 302°
2026-05-06 14:57 31.41008 29.59384 40100 ft 441 kts 302°
2026-05-06 14:58 31.44604 29.53579 40106 ft 441 kts 302°
2026-05-06 14:58 31.48205 29.47761 40110 ft 441 kts 302°